Flag for U.S.A. Weather past 2 weeks in Jackson, Mississippi, U.S.A.

Now
73 °F

Passing clouds.


Feels Like: 71 °F
Forecast: 68 / 85 °F
Wind: 5 mph from Southeast

Location: Hawkins Field

Current Time: May 27, 2015 at 1:05:46 AM

Latest Report: May 26, 2015 at 11:53 PM


Visibility: 10 mi

Pressure: 30.09 "Hg

Humidity: 88%

Dew point: 69 °F

Location of JacksonLocation

Historic Weather in Jackson — Graph

°F

Jackson temperature yesterday

Maximum temperature yesterday: 85 °F (at 4:53 PM)
Minimum temperature yesterday: 64 °F (at 3:53 AM)
Average temperature yesterday: 73 °F

Past Weeks' High & Low Weather Summary

 TemperatureHumidityPressure
High87 °F (May 14, 3:53 PM)97% (May 18, 2:53 AM)30.24 "Hg (May 18, 2:53 AM)
Low52 °F (May 22, 5:53 AM)43% (May 22, 4:53 PM)29.91 "Hg (May 20, 6:53 PM)
Average73 °F78%30.09 "Hg
* Reported May 11 11:53 PM — May 26 11:53 PM, Jackson, Weather by CustomWeather, © 2015

Note: Actual official high and low records may vary slightly from our data, if they occured in-between our weather recording intervals... More about our weather records

Advertising

Jackson weather history for previous 24 hours

 ConditionsComfort  
Time TempWeatherWind HumidityBarometerVisibility
11:53 PM
Tue, May 26
73 °FPassing clouds.5 mph88%30.09 "Hg10 mi
11:00 PM74 °FPassing clouds.5 mph85%30.12 "Hg10 mi
9:53 PM75 °FThunderstorms. Passing clouds.7 mph79%30.10 "Hg10 mi
8:53 PM76 °FSunny.8 mph82%30.08 "Hg10 mi
7:53 PM79 °FSunny.No wind72%30.06 "Hg10 mi
6:53 PM82 °FSunny.3 mph63%30.06 "Hg10 mi
5:53 PM84 °FSunny.5 mph55%30.05 "Hg10 mi
4:53 PM85 °FSunny.6 mph53%30.04 "Hg10 mi
3:53 PM84 °FSunny.7 mph53%30.05 "Hg10 mi
2:53 PM83 °FSunny.7 mph51%30.06 "Hg10 mi
1:53 PM80 °FSunny.3 mph64%30.06 "Hg10 mi
12:53 PM78 °FSunny.N/A66%30.06 "Hg10 mi
11:53 AM74 °FPassing clouds.3 mph74%30.06 "Hg10 mi
10:53 AM71 °FSunny.No wind81%30.06 "Hg10 mi
9:53 AM67 °FPassing clouds.3 mph87%30.06 "Hg10 mi
8:53 AM65 °FSunny.3 mph91%30.04 "Hg10 mi
7:53 AM65 °FLight rain. Scattered clouds.9 mph91%30.03 "Hg10 mi
6:53 AM64 °FPassing clouds.16 mph94%29.99 "Hg10 mi
5:53 AM64 °FLight rain. Passing clouds.7 mph97%30.08 "Hg10 mi
5:03 AM65 °FLight rain. Partly cloudy.6 mph94%30.10 "Hg10 mi
4:53 AM64 °FLight rain. Passing clouds.5 mph94%30.07 "Hg10 mi
3:53 AM64 °FRain. Fog.5 mph94%30.07 "Hg4 mi
1:53 AM74 °FMostly cloudy.10 mph88%30.00 "Hg10 mi
Weather by CustomWeather, © 2015

See weather overviewHow to use our weather pages